Location: La Sioule Rivi�re
(46.3664°N, 3.3197°E)
Time: 13:00:07
(UTC+00:00)

USA 308 - Pass Details

Date: 29 October 2020
Orbit: 571 x 578 km, 54.0° (Epoch: 23 November)

Event Time Altitude Azimuth Distance (km) Brightness Sun altitude
Rises 17:04:11 0° 300° (WNW) 2,788 7.2 -5.5°
Reaches altitude 10° 17:06:33 10° 308° (NW) 1,887 6.1 -5.9°
Maximum altitude 17:10:38 42° 20° (NNE) 827 3.5 -6.6°
Drops below altitude 10° 17:14:43 10° 92° (E) 1,878 4.9 -7.3°
Enters shadow 17:15:05 - 93° (E) 2,017 5.1 -7.3°
